www.pogodaiklimat.ru

Погода и климат >> Архив погоды >> Сенегал >> Tambacounda


ПОГОДА в Tambacounda

  • Прогноз погоды в Tambacounda
  • Монитор погоды в Tambacounda
  • Климат города

АРХИВ ПОГОДЫ в Tambacounda

Время (UTC), дата Ветер
(напр.,м/с)
 
Видим.   Явления Облачность Т
(С)
Тd
(С)
f
(%)
Тe
(С)
Тes
(С)
Комфортность P
(гПа)
Po
(гПа)
Тmin
(С)
Tmax
(С)
R
(мм)
R24
(мм)
S
(см)
00 14.09 СЗ 1 10 км гроза без осадков 8/5 400 м
[Cb cap Ac cuf]
+27.4 +25.4 89 +40 +40 очень
душно
1012.2 1006.5
03 14.09 ЮВ 1 8000 м гроза, ливневой дождь 10/5 400 м
[Cb cap Ac As]
+24.4 +22.6 90 +32 +32 очень
душно
1011.1 1005.4
06 14.09 ЮЗ 1 10 км гроза без осадков {дождь} 9/1 400 м
[Cb cap Ac As]
+24.4 +23.1 92 +32 +32 очень
душно
1011.7 1006.0 +23.0 7
09 14.09 ЮВ 2 10 км гроза, ливневой дождь 10/3 400 м
[Cb cap As op]
+22.2 +21.1 93 +29 +30 очень
душно
1015.7 1009.9
12 14.09 З 2 10 км {гроза, дождь} 9/0
[Ac As]
+27.3 +21.7 72 +35 +43 очень
душно
1011.5 1005.8 4
15 14.09 СЗ 1 10 км 9/4 400 м
[Cu hum Ac trans]
+31.5 +23.3 62 +42 +48 опасность
перегрева
1012.0 1006.3
18 14.09 С 1 10 км 9/0
[Ac As Ci sp]
+30.2 +23.0 65 +40 +41 очень
душно
1011.5 1005.8 +31.5 4
21 14.09 штиль 0 10 км 6/0
[Ci sp]
+27.5 +25.4 88 +40 +40 очень
душно
1011.5 1005.7
00 15.09 З 1 10 км 6/0
[Ci sp]
+26.1 +24.2 89 +36 +36 очень
душно
1011.8 1006.1
03 15.09 Ю 1 10 км 4/0
[Ci sp]
+25.2 +23.9 93 +35 +35 очень
душно
1010.6 1004.9
06 15.09 З 1 10 км 4/0
[Ci sp]
+25.0 +23.7 93 +34 +34 очень
душно
1011.6 1005.9 +24.5 4
15 15.09 Ю 2 10 км 5/3 400 м
[Cu hum Ci sp]
+33.2 +23.5 57 +44 +54 опасность
перегрева
1010.4 1004.8
18 15.09 ЮЗ 1 10 км 6/0
[Ci sp]
+32.4 +24.2 62 +45 +46 опасность
перегрева
1010.0 1004.4 +33.6
21 15.09 Ю 2 10 км 4/0
[Ci sp]
+29.2 +25.9 82 +44 +44 опасность
перегрева
1011.8 1006.0
00 16.09 ЮЗ 1 10 км 4/0
[Ci sp]
+27.8 +26.6 93 +43 +43 опасность
перегрева
1012.9 1007.3
03 16.09 ЮЗ 2 10 км 5/0
[Ac trans]
+27.0 +26.0 94 +40 +40 очень
душно
1012.4 1006.2
06 16.09 ЮЗ 2 10 км 5/0
[Ac trans]
+26.1 +25.3 95 +38 +38 очень
душно
1012.1 1006.6 +25.7
09 16.09 ЮЗ 1 10 км 6/5 400 м
[Sc Ac trans Ci sp]
+27.0 +22.9 78 +36 +39 очень
душно
1013.0 1007.3
12 16.09 ЮЗ 1 10 км 6/1 450 м
[Cu hum Ci sp]
+32.4 +25.1 65 +46 +65 опасность
перегрева
1012.4 1006.8
15 16.09 З 1 10 км 4/3 400 м
[Cu hum Ac trans]
+36.0 +24.9 53 +49 +61 опасность
перегрева
1009.9 1004.3
18 16.09 ЮЗ 1 10 км 5/3 400 м
[Cu hum Ac trans]
+33.8 +25.8 63 +49 +50 опасность
перегрева
1009.6 1004.0 +36.0
21 16.09 ЮЗ 1 10 км 4/1 400 м
[Sc diur, vesp Ac trans]
+30.5 +26.4 79 +47 +47 опасность
перегрева
1010.6 1004.9
00 17.09 Ю 1 10 км 4/0
[Ac trans]
+29.0 +26.2 85 +44 +44 опасность
перегрева
1011.0 1005.4
03 17.09 ЮВ 1 10 км зарница 5/1 800 м
[Cb calv Ci sp]
+28.1 +26.3 90 +43 +43 опасность
перегрева
1010.1 1004.5
06 17.09 ЮЗ 2 10 км в посл. час гроза {дождь} 9/4 400 м
[Sc Ac As]
+22.6 +20.5 88 +29 +29 очень
душно
1009.5 1003.8 +21.0 7
09 18.09 З 1 10 км в посл. час гроза {дождь} 9/6 400 м
[Cu med, cong Ac As]
+25.0 +23.3 90 +33 +35 очень
душно
1011.9 1006.2
12 18.09 С 3 10 км {гроза, дождь} 9/3 400 м
[Sc diur, vesp Ac As]
+26.5 +29.9 100 +40 +45 очень
душно
1012.9 1007.2 0.2
15 18.09 Ю 1 9000 м гроза, ливневой дождь 9/8 600 м
[Cb cap Ac As]
+29.2 +25.0 78 +42 +44 опасность
перегрева
1010.5 1004.8
18 18.09 СВ 1 10 км гроза, ливневой дождь 10/4 600 м
[Cb cap Ac As]
+27.5 +24.7 85 +39 +39 очень
душно
1011.1 1005.4 +29.5 0.0
21 18.09 В 1 10 км {гроза, дождь} 10/4 400 м
[Sc Ac As]
+24.0 +21.8 88 +31 +31 очень
душно
1011.2 1005.4
00 19.09 ЮВ 1 10 км гроза без осадков {дождь} 9/4 400 м
[Cb cap Ac As]
+23.6 +22.1 91 +30 +30 очень
душно
1012.7 1006.9 0.0
03 19.09 СВ 4 10 км гроза без осадков 10/4 900 м
[Cb cap Ac As]
+23.7 +22.7 94 +31 +31 очень
душно
1012.3 1006.6
06 19.09 Ю 1 10 км гроза, ливневой дождь 10/4 900 м
[Cb cap Ac As]
+23.8 +27.4 100 +32 +32 очень
душно
1010.2 1004.5 +23.0 0.7
09 19.09 С 1 10 км {гроза, дождь} 10/4 400 м
[Sc Ac As]
+25.7 +24.0 90 +35 +37 очень
душно
1013.5 1007.8
00 20.09 Ю 2 10 км зарница 9/3 800 м
[Cb calv Ac As Ci sp]
+27.3 +25.0 87 +39 +39 очень
душно
1013.6 1007.9
03 20.09 З 1 10 км зарница 9/1 800 м
[Cb calv Ac As Ci sp]
+26.3 +25.2 94 +38 +38 очень
душно
1011.8 1006.2
06 20.09 ЮЗ 1 10 км 9/4 400 м
[Sc Ac As Ci sp]
+26.0 +24.7 93 +37 +37 очень
душно
1011.9 1006.2 +23.8 0.0

 

Местоположение метеостанции Tambacounda (Сенегал): широта 13.77 долгота -13.68 высота над уровнем моря 50 м.

В архиве по умолчанию представлена погода в Tambacounda за последнюю неделю. Архивные данные за месяц целиком и за предыдущие месяцы, начиная с января 2011 года, Вы можете получить, выбрав интересующий диапазон дат из раскрывающегося списка и нажав кнопку "Ввод!".


*Определитесь, кто Вы:
робот инопланетянин человек

Внимание! Время в таблицах - всемирное. Для получения местного времени необходимо прибавить поправку, которая в Tambacounda равна 0 ч.

Смотрите также архив погоды в соседних городах и на ближайших метеорологических станциях:

Погода в Fatoto (Гамбия) (33 км)
Погода в Basse (Гамбия) (85 км)
Погода в Georgetown (Гамбия) (121 км)
Погода в Koundara (Гвинея) (135 км)
Погода в Kolda (Сенегал) (170 км)
Погода в Kauur (Гамбия) (177 км)
Погода в Jenoi (Гамбия) (207 км)
Погода в Kedougou (Сенегал) (208 км)
Погода в Bafata (Гвинея-Биссау) (208 км)
Погода в Matam (Сенегал) (214 км)

Пояснения к столбцам:

Ветер - указаны скорость ветра в м/с - средняя за 10 мин, порывы в срок и между сроками (в фигурных скобках) и направление, откуда дует ветер: С - северный, СВ - северо-восточный, В - восточный, ЮВ - юго-восточный, Ю - южный, ЮЗ - юго-западный, З - западный, СЗ - северо-западный.
Видимость - горизонтальная дальность видимости в метрах или километрах. При видимости от 1 до 10 км при отсутствии осадков обычно наблюдается дымка, при ухудшении видимости до 1 км и менее - туман. В сухую погоду видимость может ухудшаться дымом, пылью или мглою.
Явления - указаны атмосферные явления, наблюдавшиеся в срок или в последний час перед сроком; фигурными скобками обозначены явления, наблюдавшиеся между сроками (за 1-3 часа до срока); квадратными скобками обозначены град или гололедные отложения с указанием их диаметра в мм.
Облачность - указаны через наклонную черту общая и нижняя облачность в баллах и высота нижней границы облаков в метрах; квадратными скобками обозначены формы облаков: Ci - перистые, Cs - перисто-слоистые, Cc - перисто-кучевые, Ac - высококучевые, As - высокослоистые, Sc - слоисто-кучевые, Ns - слоисто-дождевые, Cu - кучевые, Cb - кучево-дождевые. Подробнее классификацию облаков см. в Атласе облаков (PDF).
T - Температура воздуха - температура, измеренная на высоте 2 м над землей.
Td - Температура точки росы - температура, при понижении до которой содержащийся в воздухе водяной пар достигнет насыщения.
f - Относительная влажность воздуха - влажноcть воздуха, измеренная на высоте 2 м над землей.
Te - Эффективная температура - температура, которую ощущает одетый по сезону человек в тени. Характеристика душности погоды. При расчете учитывается влияние влажности воздуха и скорости ветра на теплоощущения человека.
Tes - Эффективная температура на солнце - температура, которую ощущает человек, с поправкой на солнечный нагрев. Характеристика знойности погоды. Зависит от высоты солнца над горизонтом, облачности и скорости ветра. Ночью, в пасмурную погоду, а также при ветре 12 м/с и более поправка равна нулю.
P - Атмосферное давление - приведенное к уровню моря атмосферное давление.
Po - Атмосферное давление - измеренное на уровне метеостанции атмосферное давление.
Tmin - Минимальная температура - минимум температуры воздуха на высоте 2 м над землей.
Tmax - Максимальная температура - максимум температуры воздуха на высоте 2 м над землей.
R - Количество осадков - Количество выпавших осадков за период времени, мм. При наведении курсора мыши на число - период времени, за который выпало указанное количество осадков.
R24 - Количество осадков - Количество выпавших осадков за 24 часа, мм.
S - Снежный покров - Высота снежного покрова, см. При наведении курсора мыши на число - состояние снежного покрова и степень покрытия местности в баллах.